Location: ?????
(31.8092°N, 35.2590°E)
Time: 18:15:58
(UTC+00:00)

Lacrosse 5 - Pass Details

Date: 20 June 2021
Orbit: 715 x 724 km, 57.0° (Epoch: 28 July)

Event Time Altitude Azimuth Distance (km) Brightness Sun altitude
Rises 17:40:25 0° 327° (NNW) 3,121 6.7 -10.3°
Reaches altitude 10° 17:42:51 10° 332° (NNW) 2,199 5.5 -10.8°
Maximum altitude 17:47:48 53° 49° (NE) 882 2.2 -11.6°
Enters shadow 17:51:32 17° 122° (ESE) 1,764 3.2 -12.2°
